Time,TemperatureF,DewpointF,PressureIn,WindDirection,WindDirectionDegrees,WindSpeedMPH,WindSpeedGustMPH,Humidity,HourlyPrecipIn,Conditions,Clouds,dailyrainin,SolarRadiationWatts/m^2,SoftwareType,DateUTC
2013-06-24 00:01:00,81.0,73.5,30.07,SE,146,4.0,6.0,78,0.00,,BKN250,0.15,0.00,VWS V14.00,2013-06-24 04:01:00,
2013-06-24 00:03:00,81.0,73.5,30.07,SE,146,3.0,6.0,78,0.00,,BKN250,0.00,0.00,VWS V14.00,2013-06-24 04:03:00,
2013-06-24 00:08:00,81.0,73.5,30.08,SE,146,2.0,6.0,78,0.00,,BKN250,0.00,0.00,VWS V14.00,2013-06-24 04:08:00,
2013-06-24 00:13:00,81.0,73.5,30.08,SE,146,0.0,1.0,78,0.00,,BKN250,0.00,0.00,VWS V14.00,2013-06-24 04:13:00,
2013-06-24 00:18:00,80.9,73.4,30.08,SSE,148,3.0,4.0,78,0.00,,BKN250,0.00,0.00,VWS V14.00,2013-06-24 04:18:00,
2013-06-24 00:23:00,80.9,73.4,30.08,SSE,148,3.0,7.0,78,0.00,,BKN250,0.00,0.00,VWS V14.00,2013-06-24 04:23:00,
2013-06-24 00:28:00,80.9,73.4,30.08,SSE,148,0.0,1.0,78,0.00,,BKN250,0.00,0.00,VWS V14.00,2013-06-24 04:28:00,
2013-06-24 00:33:00,80.9,73.8,30.08,SE,143,3.0,6.0,79,0.00,,BKN250,0.00,0.00,VWS V14.00,2013-06-24 04:33:00,
2013-06-24 00:38:00,80.9,73.8,30.08,SE,140,5.0,6.0,79,0.00,,BKN250,0.00,0.00,VWS V14.00,2013-06-24 04:38:00,
2013-06-24 00:43:00,80.6,73.5,30.08,SE,139,0.0,4.0,79,0.00,,BKN250,0.00,0.00,VWS V14.00,2013-06-24 04:43:00,
2013-06-24 00:48:00,80.4,73.3,30.08,SE,139,3.0,4.0,79,0.00,,BKN250,0.00,0.00,VWS V14.00,2013-06-24 04:48:00,
2013-06-24 00:53:00,80.4,73.7,30.08,SE,139,4.0,5.0,80,0.00,,BKN250,0.00,0.00,VWS V14.00,2013-06-24 04:53:00,
2013-06-24 00:58:00,80.2,73.5,30.08,SSE,150,5.0,10.0,80,0.00,,BKN250,0.01,0.00,VWS V14.00,2013-06-24 04:58:00,
2013-06-24 01:03:00,80.0,74.4,30.08,SSE,150,0.0,0.0,83,0.30,,BKN250,0.03,0.00,VWS V14.00,2013-06-24 05:03:00,
2013-06-24 01:08:00,79.6,74.3,30.08,SSE,150,0.0,0.0,84,0.24,,BKN250,0.05,0.00,VWS V14.00,2013-06-24 05:08:00,
2013-06-24 01:13:00,79.1,74.2,30.08,SSE,150,0.0,0.0,85,0.17,,BKN250,0.06,0.00,VWS V14.00,2013-06-24 05:13:00,
2013-06-24 01:18:00,78.4,73.5,30.08,SSE,150,2.0,2.0,85,0.12,,BKN250,0.07,0.00,VWS V14.00,2013-06-24 05:18:00,
2013-06-24 01:23:00,78.2,73.7,30.08,SSE,150,0.0,0.0,86,0.06,,BKN250,0.07,0.00,VWS V14.00,2013-06-24 05:23:00,
2013-06-24 01:28:00,77.9,73.4,30.07,SSE,150,0.0,0.0,86,0.04,,BKN250,0.07,0.00,VWS V14.00,2013-06-24 05:28:00,
2013-06-24 01:34:00,77.7,73.5,30.07,SSE,150,0.0,0.0,87,0.00,,BKN250,0.07,0.00,VWS V14.00,2013-06-24 05:34:00,
2013-06-24 01:39:00,77.5,73.3,30.07,SSE,150,0.0,1.0,87,0.00,,BKN250,0.07,0.00,VWS V14.00,2013-06-24 05:39:00,
2013-06-24 01:44:00,77.5,73.3,30.07,SSE,150,6.0,7.0,87,0.00,,BKN250,0.07,0.00,VWS V14.00,2013-06-24 05:44:00,
2013-06-24 01:49:00,77.6,73.4,30.07,SSE,150,0.0,0.0,87,0.00,,BKN250,0.07,0.00,VWS V14.00,2013-06-24 05:49:00,
2013-06-24 01:54:00,77.8,73.3,30.07,SSE,150,4.0,6.0,86,0.00,,BKN250,0.07,0.00,VWS V14.00,2013-06-24 05:54:00,
2013-06-24 01:59:00,78.1,73.2,30.07,SSE,150,6.0,6.0,85,0.00,,BKN250,0.07,0.00,VWS V14.00,2013-06-24 05:59:00,
2013-06-24 02:04:00,78.4,73.5,30.06,SSE,150,6.0,6.0,85,0.00,,BKN250,0.07,0.00,VWS V14.00,2013-06-24 06:04:00,
2013-06-24 02:09:00,78.7,73.8,30.06,SSE,153,0.0,4.0,85,0.00,,BKN250,0.07,0.00,VWS V14.00,2013-06-24 06:09:00,
2013-06-24 02:14:00,78.8,73.6,30.06,SSE,155,4.0,6.0,84,0.00,,BKN250,0.07,0.00,VWS V14.00,2013-06-24 06:14:00,
2013-06-24 02:20:00,78.9,73.3,30.06,SSE,154,5.0,9.0,83,0.00,,BKN250,0.07,0.00,VWS V14.00,2013-06-24 06:20:00,
2013-06-24 02:25:00,79.1,73.1,30.06,SSE,154,10.0,12.0,82,0.00,,BKN250,0.07,0.00,VWS V14.00,2013-06-24 06:25:00,
2013-06-24 02:30:00,79.3,73.0,30.06,SSE,167,7.0,12.0,81,0.00,,BKN250,0.07,0.00,VWS V14.00,2013-06-24 06:30:00,
2013-06-24 02:35:00,79.5,72.8,30.05,SSE,155,4.0,8.0,80,0.00,,BKN250,0.07,0.00,VWS V14.00,2013-06-24 06:35:00,
2013-06-24 02:40:00,79.5,72.8,30.05,SSE,160,4.0,9.0,80,0.00,,BKN250,0.07,0.00,VWS V14.00,2013-06-24 06:40:00,
2013-06-24 02:46:00,79.5,72.8,30.05,SSE,160,0.0,2.0,80,0.00,,BKN250,0.07,0.00,VWS V14.00,2013-06-24 06:46:00,
2013-06-24 02:50:00,79.5,72.8,30.05,SSE,161,0.0,0.0,80,0.00,,BKN250,0.07,0.00,VWS V14.00,2013-06-24 06:50:00,
2013-06-24 02:56:00,79.4,73.1,30.05,SSE,161,0.0,3.0,81,0.00,,BKN250,0.07,0.00,VWS V14.00,2013-06-24 06:56:00,
2013-06-24 03:01:00,79.2,73.6,30.05,SSE,161,0.0,0.0,83,0.00,,BKN250,0.07,0.00,VWS V14.00,2013-06-24 07:01:00,
2013-06-24 03:06:00,79.0,73.8,30.04,SSE,161,2.0,2.0,84,0.00,,BKN250,0.07,0.00,VWS V14.00,2013-06-24 07:06:00,
2013-06-24 03:11:00,78.9,73.7,30.05,SSE,161,0.0,0.0,84,0.00,,BKN250,0.07,0.00,VWS V14.00,2013-06-24 07:11:00,
2013-06-24 03:16:00,78.9,73.7,30.04,SSE,161,4.0,5.0,84,0.00,,BKN250,0.07,0.00,VWS V14.00,2013-06-24 07:16:00,
2013-06-24 03:21:00,79.0,73.8,30.05,SSE,161,0.0,0.0,84,0.00,,BKN250,0.07,0.00,VWS V14.00,2013-06-24 07:21:00,
2013-06-24 03:26:00,79.0,73.4,30.05,SSE,161,0.0,5.0,83,0.00,,BKN250,0.07,0.00,VWS V14.00,2013-06-24 07:26:00,
2013-06-24 03:32:00,79.1,73.1,30.05,SSE,161,3.0,4.0,82,0.00,,BKN250,0.07,0.00,VWS V14.00,2013-06-24 07:32:00,
2013-06-24 03:37:00,79.2,73.2,30.05,SSE,161,0.0,0.0,82,0.00,,BKN250,0.07,0.00,VWS V14.00,2013-06-24 07:37:00,
2013-06-24 03:42:00,79.2,73.2,30.05,SSE,159,0.0,5.0,82,0.00,,BKN250,0.07,0.00,VWS V14.00,2013-06-24 07:42:00,
2013-06-24 03:47:00,79.3,73.3,30.05,SSE,159,0.0,4.0,82,0.00,,BKN250,0.07,0.00,VWS V14.00,2013-06-24 07:47:00,
2013-06-24 03:53:00,79.3,73.3,30.05,SSE,159,0.0,0.0,82,0.00,,BKN250,0.07,0.00,VWS V14.00,2013-06-24 07:53:00,
2013-06-24 03:58:00,79.3,73.3,30.05,SSE,159,4.0,6.0,82,0.00,,BKN250,0.07,0.00,VWS V14.00,2013-06-24 07:58:00,
2013-06-24 04:03:00,79.5,73.5,30.05,SSE,158,0.0,0.0,82,0.00,,BKN250,0.07,0.00,VWS V14.00,2013-06-24 08:03:00,
2013-06-24 04:09:00,79.6,73.6,30.04,SSE,158,0.0,1.0,82,0.00,,BKN250,0.07,0.00,VWS V14.00,2013-06-24 08:09:00,
2013-06-24 04:14:00,79.6,73.6,30.04,SSE,158,2.0,5.0,82,0.00,,BKN250,0.07,0.00,VWS V14.00,2013-06-24 08:14:00,
2013-06-24 04:19:00,79.6,73.3,30.04,SSE,158,4.0,4.0,81,0.00,,BKN250,0.07,0.00,VWS V14.00,2013-06-24 08:19:00,
2013-06-24 04:24:00,79.6,73.3,30.04,SSE,157,4.0,5.0,81,0.00,,BKN250,0.07,0.00,VWS V14.00,2013-06-24 08:24:00,
2013-06-24 04:29:00,79.6,73.3,30.04,SSE,155,4.0,7.0,81,0.00,,BKN250,0.07,0.00,VWS V14.00,2013-06-24 08:29:00,
2013-06-24 04:34:00,79.7,73.4,30.04,SSE,154,5.0,6.0,81,0.00,,BKN250,0.07,0.00,VWS V14.00,2013-06-24 08:34:00,
2013-06-24 04:39:00,79.7,73.4,30.04,SSE,150,5.0,6.0,81,0.00,,BKN250,0.07,0.00,VWS V14.00,2013-06-24 08:39:00,
2013-06-24 04:45:00,79.7,73.4,30.04,SSE,149,0.0,5.0,81,0.00,,BKN250,0.07,0.00,VWS V14.00,2013-06-24 08:45:00,
2013-06-24 04:50:00,79.7,73.4,30.04,SSE,149,0.0,1.0,81,0.00,,BKN250,0.07,0.00,VWS V14.00,2013-06-24 08:50:00,
2013-06-24 04:55:00,79.7,73.7,30.04,SE,145,6.0,7.0,82,0.00,,BKN250,0.07,0.00,VWS V14.00,2013-06-24 08:55:00,
2013-06-24 05:00:00,79.6,73.6,30.04,SE,145,0.0,4.0,82,0.00,,BKN250,0.07,0.00,VWS V14.00,2013-06-24 09:00:00,
2013-06-24 05:05:00,79.6,73.6,30.04,SE,146,0.0,4.0,82,0.00,,BKN250,0.07,0.00,VWS V14.00,2013-06-24 09:05:00,
2013-06-24 05:10:00,79.6,73.6,30.04,SE,146,2.0,4.0,82,0.00,,BKN250,0.07,0.00,VWS V14.00,2013-06-24 09:10:00,
2013-06-24 05:15:00,79.7,73.7,30.04,SE,146,2.0,5.0,82,0.00,,BKN250,0.07,0.00,VWS V14.00,2013-06-24 09:15:00,
2013-06-24 05:20:00,79.7,73.7,30.04,SSE,148,4.0,5.0,82,0.00,,BKN250,0.07,0.00,VWS V14.00,2013-06-24 09:20:00,
2013-06-24 05:25:00,79.8,73.8,30.04,SE,146,2.0,5.0,82,0.00,,BKN250,0.07,0.00,VWS V14.00,2013-06-24 09:25:00,
2013-06-24 05:30:00,79.8,73.4,30.04,SSE,151,4.0,5.0,81,0.00,,BKN250,0.07,0.00,VWS V14.00,2013-06-24 09:30:00,
2013-06-24 05:35:00,79.8,73.4,30.04,SE,145,6.0,6.0,81,0.00,,BKN250,0.07,0.00,VWS V14.00,2013-06-24 09:35:00,
2013-06-24 05:41:00,79.9,73.6,30.05,SE,146,2.0,6.0,81,0.00,,BKN250,0.07,0.00,VWS V14.00,2013-06-24 09:41:00,
2013-06-24 05:46:00,79.8,73.4,30.05,SE,146,4.0,5.0,81,0.00,,BKN250,0.07,0.00,VWS V14.00,2013-06-24 09:46:00,
2013-06-24 05:51:00,79.9,73.2,30.05,SSE,150,4.0,6.0,80,0.00,,BKN250,0.07,0.00,VWS V14.00,2013-06-24 09:51:00,
2013-06-24 05:56:00,79.9,73.2,30.05,SSE,150,0.0,1.0,80,0.00,,BKN250,0.07,0.00,VWS V14.00,2013-06-24 09:56:00,
2013-06-24 06:01:00,79.8,73.4,30.05,SSE,152,3.0,6.0,81,0.00,,BKN250,0.07,0.00,VWS V14.00,2013-06-24 10:01:00,
2013-06-24 06:06:00,79.8,73.4,30.05,SSE,152,0.0,3.0,81,0.00,,BKN250,0.07,0.00,VWS V14.00,2013-06-24 10:06:00,
2013-06-24 06:11:00,79.8,73.4,30.05,SSE,150,1.0,5.0,81,0.00,,BKN250,0.07,0.00,VWS V14.00,2013-06-24 10:11:00,
2013-06-24 06:17:00,79.7,73.7,30.05,SSE,150,0.0,4.0,82,0.00,,BKN250,0.07,0.00,VWS V14.00,2013-06-24 10:17:00,
2013-06-24 06:22:00,79.7,73.7,30.05,SSE,150,4.0,5.0,82,0.00,,BKN250,0.07,0.00,VWS V14.00,2013-06-24 10:22:00,
2013-06-24 06:27:00,79.6,73.6,30.05,SSE,150,1.0,4.0,82,0.00,,BKN250,0.07,0.00,VWS V14.00,2013-06-24 10:27:00,
2013-06-24 06:32:00,79.7,73.7,30.06,SSE,150,0.0,0.0,82,0.00,,BKN250,0.07,0.00,VWS V14.00,2013-06-24 10:32:00,
2013-06-24 06:37:00,79.6,74.0,30.06,SSE,150,0.0,0.0,83,0.00,,BKN250,0.07,5.00,VWS V14.00,2013-06-24 10:37:00,
2013-06-24 06:42:00,79.5,73.9,30.06,SSE,150,0.0,0.0,83,0.00,,BKN250,0.07,16.00,VWS V14.00,2013-06-24 10:42:00,
2013-06-24 06:47:00,79.5,73.9,30.06,SSE,150,0.0,0.0,83,0.00,,BKN250,0.07,54.00,VWS V14.00,2013-06-24 10:47:00,
2013-06-24 06:52:00,79.5,74.2,30.06,SSE,150,0.0,0.0,84,0.00,,BKN250,0.07,26.00,VWS V14.00,2013-06-24 10:52:00,
2013-06-24 06:57:00,79.6,74.0,30.06,SSE,150,2.0,3.0,83,0.00,,BKN250,0.07,127.00,VWS V14.00,2013-06-24 10:57:00,
2013-06-24 07:02:00,79.7,74.1,30.06,SSE,150,0.0,3.0,83,0.00,,BKN250,0.07,53.00,VWS V14.00,2013-06-24 11:02:00,
2013-06-24 07:08:00,79.9,73.9,30.07,SSE,150,0.0,2.0,82,0.00,,BKN250,0.07,58.00,VWS V14.00,2013-06-24 11:08:00,
2013-06-24 07:13:00,80.2,74.2,30.07,SSE,150,2.0,4.0,82,0.00,,BKN250,0.07,236.00,VWS V14.00,2013-06-24 11:13:00,
2013-06-24 07:18:00,80.5,74.1,30.08,SSE,150,0.0,4.0,81,0.00,,BKN250,0.07,299.00,VWS V14.00,2013-06-24 11:18:00,
2013-06-24 07:23:00,80.4,73.7,30.07,SSE,150,0.0,3.0,80,0.00,,BKN250,0.07,283.00,VWS V14.00,2013-06-24 11:23:00,
2013-06-24 07:28:00,80.4,73.7,30.07,SSE,150,0.0,0.0,80,0.00,,BKN250,0.07,239.00,VWS V14.00,2013-06-24 11:28:00,
2013-06-24 07:33:00,80.6,74.2,30.07,SSE,150,0.0,0.0,81,0.00,,FEW027,0.07,151.00,VWS V14.00,2013-06-24 11:33:00,
2013-06-24 07:38:00,81.0,74.2,30.07,SSE,147,7.0,7.0,80,0.00,,FEW027,0.07,255.00,VWS V14.00,2013-06-24 11:38:00,
2013-06-24 07:43:00,81.5,74.7,30.08,SE,145,0.0,2.0,80,0.00,,FEW027,0.07,285.00,VWS V14.00,2013-06-24 11:43:00,
2013-06-24 07:48:00,82.0,74.8,30.08,SE,142,3.0,3.0,79,0.00,,FEW027,0.07,285.00,VWS V14.00,2013-06-24 11:48:00,
2013-06-24 07:53:00,82.4,75.2,30.08,SE,142,0.0,1.0,79,0.00,,FEW027,0.07,288.00,VWS V14.00,2013-06-24 11:53:00,
2013-06-24 07:58:00,82.7,75.2,30.08,SE,142,0.0,0.0,78,0.00,,FEW027,0.07,269.00,VWS V14.00,2013-06-24 11:58:00,
2013-06-24 08:03:00,83.0,75.4,30.08,SE,139,5.0,7.0,78,0.00,,FEW027,0.07,234.00,VWS V14.00,2013-06-24 12:03:00,
2013-06-24 08:08:00,83.0,75.1,30.08,SE,134,4.0,10.0,77,0.00,,FEW027,0.07,271.00,VWS V14.00,2013-06-24 12:08:00,
2013-06-24 08:15:00,83.2,74.8,30.08,SE,130,6.0,6.0,76,0.00,,FEW027,0.07,244.00,VWS V14.00,2013-06-24 12:15:00,
2013-06-24 08:20:00,83.2,74.8,30.08,SE,139,6.0,10.0,76,0.00,,FEW027,0.07,244.00,VWS V14.00,2013-06-24 12:20:00,
2013-06-24 08:25:00,83.1,74.8,30.08,ESE,119,10.0,11.0,76,0.00,,FEW027,0.07,234.00,VWS V14.00,2013-06-24 12:25:00,
2013-06-24 08:30:00,83.1,74.4,30.08,ESE,111,9.0,12.0,75,0.00,,FEW027,0.07,227.00,VWS V14.00,2013-06-24 12:30:00,
2013-06-24 08:35:00,83.2,74.5,30.08,SSE,153,12.0,12.0,75,0.00,,SCT045,0.07,214.00,VWS V14.00,2013-06-24 12:35:00,
2013-06-24 08:40:00,83.4,74.7,30.08,SE,127,4.0,7.0,75,0.00,,SCT045,0.07,88.00,VWS V14.00,2013-06-24 12:40:00,
2013-06-24 08:45:00,83.5,74.8,30.09,SE,127,11.0,11.0,75,0.00,,SCT045,0.07,114.00,VWS V14.00,2013-06-24 12:45:00,
2013-06-24 08:50:00,83.6,74.4,30.09,SE,146,2.0,10.0,74,0.00,,SCT045,0.07,214.00,VWS V14.00,2013-06-24 12:50:00,
2013-06-24 08:55:00,83.8,74.6,30.09,ESE,123,9.0,9.0,74,0.00,,SCT045,0.07,218.00,VWS V14.00,2013-06-24 12:55:00,
2013-06-24 09:00:00,83.9,74.7,30.09,SSE,149,7.0,10.0,74,0.00,,SCT045,0.07,221.00,VWS V14.00,2013-06-24 13:00:00,
2013-06-24 09:05:00,83.9,74.7,30.09,SSE,155,2.0,4.0,74,0.00,,SCT045,0.07,213.00,VWS V14.00,2013-06-24 13:05:00,
2013-06-24 09:11:00,84.2,74.6,30.09,SSE,154,3.0,11.0,73,0.00,,SCT045,0.07,220.00,VWS V14.00,2013-06-24 13:11:00,
2013-06-24 09:16:00,84.5,75.3,30.09,SE,140,6.0,8.0,74,0.00,,SCT045,0.07,118.00,VWS V14.00,2013-06-24 13:16:00,
2013-06-24 09:21:00,84.4,74.8,30.09,SSE,153,10.0,11.0,73,0.00,,SCT045,0.07,113.00,VWS V14.00,2013-06-24 13:21:00,
2013-06-24 09:26:00,84.1,74.5,30.09,SE,146,6.0,10.0,73,0.00,,SCT045,0.07,121.00,VWS V14.00,2013-06-24 13:26:00,
2013-06-24 09:31:00,84.0,74.4,30.09,ESE,115,9.0,12.0,73,0.00,,SCT045,0.07,246.00,VWS V14.00,2013-06-24 13:31:00,
2013-06-24 09:36:00,83.9,74.7,30.09,SE,138,7.0,8.0,74,0.00,,FEW060,0.07,104.00,VWS V14.00,2013-06-24 13:36:00,
2013-06-24 09:41:00,84.1,74.5,30.09,ESE,123,13.0,16.0,73,0.00,,FEW060,0.07,255.00,VWS V14.00,2013-06-24 13:41:00,
2013-06-24 09:46:00,84.3,74.7,30.10,SSE,153,5.0,14.0,73,0.00,,FEW060,0.07,127.00,VWS V14.00,2013-06-24 13:46:00,
2013-06-24 09:51:00,84.5,74.1,30.09,South,172,4.0,13.0,71,0.00,,FEW060,0.07,253.00,VWS V14.00,2013-06-24 13:51:00,
2013-06-24 09:56:00,84.8,74.4,30.10,SSE,148,10.0,11.0,71,0.00,,FEW060,0.07,253.00,VWS V14.00,2013-06-24 13:56:00,
2013-06-24 10:01:00,84.6,73.7,30.10,SSE,149,7.0,15.0,70,0.00,,FEW060,0.07,114.00,VWS V14.00,2013-06-24 14:01:00,
2013-06-24 10:06:00,84.7,74.7,30.10,ESE,117,10.0,11.0,72,0.00,,FEW060,0.07,265.00,VWS V14.00,2013-06-24 14:06:00,
2013-06-24 10:11:00,84.7,74.7,30.10,SSE,155,7.0,9.0,72,0.00,,FEW060,0.07,269.00,VWS V14.00,2013-06-24 14:11:00,
2013-06-24 10:16:00,84.8,74.8,30.10,ESE,123,15.0,15.0,72,0.00,,FEW060,0.07,264.00,VWS V14.00,2013-06-24 14:16:00,
2013-06-24 10:21:00,84.9,74.9,30.10,SSE,147,15.0,15.0,72,0.00,,FEW060,0.07,258.00,VWS V14.00,2013-06-24 14:21:00,
2013-06-24 10:27:00,85.0,74.6,30.10,SE,142,11.0,13.0,71,0.00,,FEW060,0.07,264.00,VWS V14.00,2013-06-24 14:27:00,
2013-06-24 10:32:00,85.4,74.9,30.10,SSE,155,9.0,11.0,71,0.00,,SCT050,0.07,264.00,VWS V14.00,2013-06-24 14:32:00,
2013-06-24 10:37:00,85.4,74.5,30.10,ESE,121,10.0,13.0,70,0.00,,SCT050,0.07,278.00,VWS V14.00,2013-06-24 14:37:00,
2013-06-24 10:42:00,85.4,74.1,30.10,SSE,163,7.0,13.0,69,0.00,,SCT050,0.07,146.00,VWS V14.00,2013-06-24 14:42:00,
2013-06-24 10:47:00,85.1,74.2,30.10,SE,125,6.0,10.0,70,0.00,,SCT050,0.07,158.00,VWS V14.00,2013-06-24 14:47:00,
2013-06-24 10:52:00,85.0,74.6,30.11,SSE,153,6.0,17.0,71,0.00,,SCT050,0.07,128.00,VWS V14.00,2013-06-24 14:52:00,
2013-06-24 10:58:00,84.9,74.4,30.11,SSE,150,14.0,14.0,71,0.00,,SCT050,0.07,148.00,VWS V14.00,2013-06-24 14:58:00,
2013-06-24 11:03:00,84.9,74.4,30.11,SE,126,14.0,14.0,71,0.00,,SCT050,0.07,218.00,VWS V14.00,2013-06-24 15:03:00,
2013-06-24 11:08:00,85.0,74.6,30.11,South,179,13.0,18.0,71,0.00,,SCT050,0.07,120.00,VWS V14.00,2013-06-24 15:08:00,
2013-06-24 11:13:00,85.2,75.2,30.11,SE,144,9.0,16.0,72,0.00,,SCT050,0.07,267.00,VWS V14.00,2013-06-24 15:13:00,
2013-06-24 11:18:00,85.6,75.5,30.11,SE,144,4.0,7.0,72,0.00,,SCT050,0.07,151.00,VWS V14.00,2013-06-24 15:18:00,
2013-06-24 11:23:00,85.1,73.8,30.11,SE,136,11.0,13.0,69,0.00,,SCT050,0.07,128.00,VWS V14.00,2013-06-24 15:23:00,
2013-06-24 11:28:00,84.9,74.0,30.11,SSE,164,9.0,11.0,70,0.00,,SCT050,0.07,120.00,VWS V14.00,2013-06-24 15:28:00,
2013-06-24 11:33:00,85.0,74.6,30.12,SSE,155,10.0,13.0,71,0.00,,SCT030,0.07,274.00,VWS V14.00,2013-06-24 15:33:00,
2013-06-24 11:39:00,85.0,75.0,30.12,South,180,5.0,6.0,72,0.00,,SCT030,0.07,74.00,VWS V14.00,2013-06-24 15:39:00,
2013-06-24 11:44:00,84.3,74.7,30.12,SSW,194,5.0,17.0,73,0.00,,SCT030,0.07,76.00,VWS V14.00,2013-06-24 15:44:00,
2013-06-24 11:49:00,83.6,74.4,30.12,SSE,161,6.0,13.0,74,0.00,,SCT030,0.07,97.00,VWS V14.00,2013-06-24 15:49:00,
2013-06-24 11:54:00,83.6,75.2,30.12,SE,140,4.0,10.0,76,0.00,,SCT030,0.07,271.00,VWS V14.00,2013-06-24 15:54:00,
2013-06-24 11:59:00,84.3,75.5,30.11,SSE,157,8.0,11.0,75,0.00,,SCT030,0.07,258.00,VWS V14.00,2013-06-24 15:59:00,
2013-06-24 12:04:00,84.9,74.9,30.11,SE,142,9.0,14.0,72,0.00,,SCT030,0.07,239.00,VWS V14.00,2013-06-24 16:04:00,
2013-06-24 12:09:00,85.8,74.5,30.11,SSE,159,15.0,15.0,69,0.00,,SCT030,0.07,250.00,VWS V14.00,2013-06-24 16:09:00,
2013-06-24 12:14:00,85.7,71.7,30.11,South,186,9.0,13.0,63,0.00,,SCT030,0.07,244.00,VWS V14.00,2013-06-24 16:14:00,
2013-06-24 12:19:00,86.1,74.3,30.11,SSE,153,13.0,13.0,68,0.00,,SCT030,0.07,200.00,VWS V14.00,2013-06-24 16:19:00,
2013-06-24 12:25:00,86.2,74.8,30.11,ESE,122,7.0,14.0,69,0.00,,SCT030,0.07,255.00,VWS V14.00,2013-06-24 16:25:00,
2013-06-24 12:30:00,86.2,74.8,30.10,SSE,154,5.0,15.0,69,0.00,,SCT030,0.07,169.00,VWS V14.00,2013-06-24 16:30:00,
2013-06-24 12:35:00,86.2,74.0,30.10,SE,145,5.0,11.0,67,0.00,,SCT030,0.07,118.00,VWS V14.00,2013-06-24 16:35:00,
2013-06-24 12:40:00,85.6,74.7,30.10,SE,134,15.0,17.0,70,0.00,,SCT030,0.07,132.00,VWS V14.00,2013-06-24 16:40:00,
2013-06-24 12:45:00,85.7,74.8,30.11,SSE,153,13.0,14.0,70,0.00,,SCT030,0.07,125.00,VWS V14.00,2013-06-24 16:45:00,
2013-06-24 12:50:00,85.4,74.5,30.11,SSE,150,11.0,13.0,70,0.00,,SCT030,0.07,104.00,VWS V14.00,2013-06-24 16:50:00,
2013-06-24 12:55:00,85.5,74.6,30.11,ESE,119,6.0,12.0,70,0.00,,SCT030,0.07,250.00,VWS V14.00,2013-06-24 16:55:00,
2013-06-24 13:00:00,85.6,74.7,30.11,SSE,152,9.0,11.0,70,0.00,,SCT030,0.07,107.00,VWS V14.00,2013-06-24 17:00:00,
2013-06-24 13:05:00,85.1,74.6,30.10,ESE,120,6.0,13.0,71,0.00,,SCT030,0.07,105.00,VWS V14.00,2013-06-24 17:05:00,
2013-06-24 13:10:00,85.0,75.0,30.10,SSE,160,10.0,14.0,72,0.00,,SCT030,0.07,76.00,VWS V14.00,2013-06-24 17:10:00,
2013-06-24 13:15:00,84.6,74.6,30.10,SE,136,6.0,10.0,72,0.00,,SCT030,0.07,83.00,VWS V14.00,2013-06-24 17:15:00,
2013-06-24 13:20:00,84.2,73.8,30.10,SE,142,5.0,10.0,71,0.00,,SCT030,0.07,178.00,VWS V14.00,2013-06-24 17:20:00,
2013-06-24 13:25:00,84.9,74.9,30.10,SSE,148,11.0,11.0,72,0.00,,SCT030,0.07,178.00,VWS V14.00,2013-06-24 17:25:00,
2013-06-24 13:31:00,85.4,74.9,30.10,SSE,165,12.0,17.0,71,0.00,,SCT030,0.07,255.00,VWS V14.00,2013-06-24 17:31:00,
2013-06-24 13:36:00,85.6,74.7,30.10,ESE,117,5.0,14.0,70,0.00,,FEW090,0.07,248.00,VWS V14.00,2013-06-24 17:36:00,
2013-06-24 13:41:00,85.8,74.9,30.09,SE,146,9.0,14.0,70,0.00,,FEW090,0.07,255.00,VWS V14.00,2013-06-24 17:41:00,
2013-06-24 13:46:00,86.1,75.2,30.09,SE,136,6.0,17.0,70,0.00,,FEW090,0.07,120.00,VWS V14.00,2013-06-24 17:46:00,
2013-06-24 13:51:00,86.4,75.9,30.09,SSE,147,14.0,14.0,71,0.00,,FEW090,0.07,95.00,VWS V14.00,2013-06-24 17:51:00,
2013-06-24 13:56:00,85.9,75.0,30.09,SSE,153,11.0,14.0,70,0.00,,FEW090,0.07,91.00,VWS V14.00,2013-06-24 17:56:00,
2013-06-24 14:01:00,85.3,75.2,30.09,SSE,147,10.0,14.0,72,0.00,,FEW090,0.07,107.00,VWS V14.00,2013-06-24 18:01:00,
2013-06-24 14:06:00,85.1,75.1,30.08,SSE,161,4.0,11.0,72,0.00,,FEW090,0.07,116.00,VWS V14.00,2013-06-24 18:06:00,
2013-06-24 14:11:00,85.4,75.3,30.08,ESE,120,15.0,16.0,72,0.00,,FEW090,0.07,160.00,VWS V14.00,2013-06-24 18:11:00,
2013-06-24 14:16:00,85.6,74.3,30.08,SSE,150,11.0,13.0,69,0.00,,FEW090,0.07,251.00,VWS V14.00,2013-06-24 18:16:00,
2013-06-24 14:21:00,86.0,74.7,30.08,South,173,15.0,18.0,69,0.00,,FEW090,0.07,116.00,VWS V14.00,2013-06-24 18:21:00,
2013-06-24 14:26:00,86.0,74.7,30.08,SSE,155,7.0,11.0,69,0.00,,FEW090,0.07,125.00,VWS V14.00,2013-06-24 18:26:00,
2013-06-24 14:31:00,86.2,75.7,30.08,ESE,121,5.0,14.0,71,0.00,,FEW090,0.07,151.00,VWS V14.00,2013-06-24 18:31:00,
2013-06-24 14:37:00,86.0,75.5,30.08,ESE,117,12.0,13.0,71,0.00,,SCT030,0.07,113.00,VWS V14.00,2013-06-24 18:37:00,
2013-06-24 14:42:00,85.7,74.8,30.08,ESE,115,6.0,14.0,70,0.00,,SCT030,0.07,113.00,VWS V14.00,2013-06-24 18:42:00,
2013-06-24 14:47:00,85.4,75.3,30.08,SE,140,6.0,11.0,72,0.00,,SCT030,0.07,193.00,VWS V14.00,2013-06-24 18:47:00,
2013-06-24 14:52:00,85.2,74.3,30.08,SE,136,11.0,17.0,70,0.00,,SCT030,0.07,120.00,VWS V14.00,2013-06-24 18:52:00,
2013-06-24 14:58:00,85.4,74.9,30.08,ESE,109,7.0,17.0,71,0.00,,SCT030,0.07,90.00,VWS V14.00,2013-06-24 18:58:00,
2013-06-24 15:03:00,85.1,74.6,30.08,ESE,122,10.0,10.0,71,0.00,,SCT030,0.07,171.00,VWS V14.00,2013-06-24 19:03:00,
2013-06-24 15:08:00,85.3,74.4,30.08,SE,129,10.0,15.0,70,0.00,,SCT030,0.07,209.00,VWS V14.00,2013-06-24 19:08:00,
2013-06-24 15:13:00,85.5,73.7,30.08,SE,140,4.0,9.0,68,0.00,,SCT030,0.07,200.00,VWS V14.00,2013-06-24 19:13:00,
2013-06-24 15:18:00,86.0,74.7,30.07,ESE,117,13.0,17.0,69,0.00,,SCT030,0.07,207.00,VWS V14.00,2013-06-24 19:18:00,
2013-06-24 15:23:00,85.4,74.5,30.07,ESE,115,11.0,15.0,70,0.00,,SCT030,0.07,211.00,VWS V14.00,2013-06-24 19:23:00,
2013-06-24 15:28:00,85.7,73.9,30.07,SE,142,7.0,10.0,68,0.00,,SCT030,0.07,83.00,VWS V14.00,2013-06-24 19:28:00,
2013-06-24 15:33:00,85.8,74.5,30.07,SE,129,4.0,13.0,69,0.00,,SCT030,0.07,213.00,VWS V14.00,2013-06-24 19:33:00,
2013-06-24 15:38:00,86.1,75.2,30.07,SSE,166,9.0,12.0,70,0.00,,SCT030,0.07,209.00,VWS V14.00,2013-06-24 19:38:00,
2013-06-24 15:43:00,85.9,74.1,30.07,SSE,151,10.0,12.0,68,0.00,,SCT030,0.07,160.00,VWS V14.00,2013-06-24 19:43:00,
2013-06-24 15:48:00,85.6,73.8,30.06,ESE,104,12.0,12.0,68,0.00,,SCT030,0.07,200.00,VWS V14.00,2013-06-24 19:48:00,
2013-06-24 15:53:00,85.8,73.6,30.06,SSE,158,12.0,12.0,67,0.00,,SCT030,0.07,192.00,VWS V14.00,2013-06-24 19:53:00,
2013-06-24 15:59:00,86.4,74.6,30.06,SE,139,7.0,16.0,68,0.00,,SCT030,0.07,190.00,VWS V14.00,2013-06-24 19:59:00,
2013-06-24 16:04:00,85.8,74.5,30.05,SSE,157,13.0,17.0,69,0.00,,SCT030,0.07,181.00,VWS V14.00,2013-06-24 20:04:00,
2013-06-24 16:09:00,85.7,74.4,30.06,ESE,123,2.0,11.0,69,0.00,,SCT030,0.07,197.00,VWS V14.00,2013-06-24 20:09:00,
2013-06-24 16:14:00,86.1,74.8,30.06,SSE,156,6.0,12.0,69,0.00,,SCT030,0.07,178.00,VWS V14.00,2013-06-24 20:14:00,
2013-06-24 16:19:00,86.1,74.3,30.05,ESE,113,13.0,14.0,68,0.00,,SCT030,0.07,199.00,VWS V14.00,2013-06-24 20:19:00,
2013-06-24 16:24:00,85.9,74.1,30.05,ESE,104,10.0,13.0,68,0.00,,SCT030,0.07,204.00,VWS V14.00,2013-06-24 20:24:00,
2013-06-24 16:29:00,85.6,74.3,30.05,SE,129,9.0,13.0,69,0.00,,SCT030,0.07,65.00,VWS V14.00,2013-06-24 20:29:00,
2013-06-24 16:34:00,85.6,74.3,30.05,SSE,161,4.0,11.0,69,0.00,,SCT030,0.07,123.00,VWS V14.00,2013-06-24 20:34:00,
2013-06-24 16:39:00,85.8,73.1,30.05,South,171,9.0,19.0,66,0.00,,SCT030,0.07,193.00,VWS V14.00,2013-06-24 20:39:00,
2013-06-24 16:44:00,85.7,73.9,30.05,SE,127,5.0,11.0,68,0.00,,SCT030,0.07,56.00,VWS V14.00,2013-06-24 20:44:00,
2013-06-24 16:49:00,85.3,74.4,30.05,ESE,109,13.0,13.0,70,0.00,,SCT030,0.07,190.00,VWS V14.00,2013-06-24 20:49:00,
2013-06-24 16:55:00,85.4,74.1,30.04,SE,143,6.0,12.0,69,0.00,,SCT030,0.07,183.00,VWS V14.00,2013-06-24 20:55:00,
2013-06-24 17:00:00,85.3,73.6,30.04,SE,133,6.0,7.0,68,0.00,,SCT030,0.07,67.00,VWS V14.00,2013-06-24 21:00:00,
2013-06-24 17:05:00,85.4,73.6,30.04,SSE,150,7.0,9.0,68,0.00,,SCT030,0.07,156.00,VWS V14.00,2013-06-24 21:05:00,
2013-06-24 17:10:00,85.6,73.4,30.04,ESE,113,10.0,14.0,67,0.00,,SCT030,0.07,134.00,VWS V14.00,2013-06-24 21:10:00,
2013-06-24 17:15:00,85.6,73.8,30.04,ESE,121,11.0,11.0,68,0.00,,SCT030,0.07,172.00,VWS V14.00,2013-06-24 21:15:00,
2013-06-24 17:20:00,85.3,74.4,30.03,SE,136,4.0,12.0,70,0.00,,SCT030,0.07,142.00,VWS V14.00,2013-06-24 21:20:00,
2013-06-24 17:25:00,85.1,73.8,30.03,SE,126,7.0,12.0,69,0.00,,SCT030,0.07,176.00,VWS V14.00,2013-06-24 21:25:00,
2013-06-24 17:30:00,85.2,74.3,30.03,SSE,157,5.0,6.0,70,0.00,,SCT030,0.07,185.00,VWS V14.00,2013-06-24 21:30:00,
2013-06-24 17:35:00,85.5,73.7,30.04,SSE,160,7.0,11.0,68,0.00,,SCT025CU,0.07,62.00,VWS V14.00,2013-06-24 21:35:00,
2013-06-24 17:40:00,85.0,73.3,30.04,SSE,155,2.0,10.0,68,0.00,,SCT025CU,0.07,188.00,VWS V14.00,2013-06-24 21:40:00,
2013-06-24 17:46:00,85.0,73.7,30.03,SE,129,11.0,14.0,69,0.00,,SCT025CU,0.07,42.00,VWS V14.00,2013-06-24 21:46:00,
2013-06-24 17:51:00,84.7,74.3,30.04,SE,125,6.0,9.0,71,0.00,,SCT025CU,0.07,46.00,VWS V14.00,2013-06-24 21:51:00,
2013-06-24 17:56:00,84.6,73.7,30.03,SSE,156,12.0,12.0,70,0.00,,SCT025CU,0.07,65.00,VWS V14.00,2013-06-24 21:56:00,
2013-06-24 18:01:00,84.7,73.8,30.04,SSE,152,4.0,12.0,70,0.00,,SCT025CU,0.07,35.00,VWS V14.00,2013-06-24 22:01:00,
2013-06-24 18:06:00,84.3,74.3,30.04,SE,132,5.0,7.0,72,0.00,,SCT025CU,0.07,144.00,VWS V14.00,2013-06-24 22:06:00,
2013-06-24 18:11:00,84.4,74.0,30.04,SE,137,9.0,12.0,71,0.00,,SCT025CU,0.07,156.00,VWS V14.00,2013-06-24 22:11:00,
2013-06-24 18:16:00,84.5,74.1,30.04,SE,144,6.0,10.0,71,0.00,,SCT025CU,0.07,149.00,VWS V14.00,2013-06-24 22:16:00,
2013-06-24 18:21:00,84.7,74.7,30.04,SSE,162,5.0,5.0,72,0.00,,SCT025CU,0.07,149.00,VWS V14.00,2013-06-24 22:21:00,
2013-06-24 18:26:00,84.9,74.4,30.04,SE,138,5.0,7.0,71,0.00,,SCT025CU,0.07,137.00,VWS V14.00,2013-06-24 22:26:00,
2013-06-24 18:32:00,84.7,73.8,30.04,SSE,153,10.0,13.0,70,0.00,,SCT025CU,0.07,128.00,VWS V14.00,2013-06-24 22:32:00,
2013-06-24 18:37:00,84.5,74.1,30.03,ESE,107,9.0,12.0,71,0.00,,SCT025CU,0.07,125.00,VWS V14.00,2013-06-24 22:37:00,
2013-06-24 18:42:00,84.3,73.9,30.04,SSE,150,9.0,14.0,71,0.00,,SCT025CU,0.07,123.00,VWS V14.00,2013-06-24 22:42:00,
2013-06-24 18:47:00,84.3,73.9,30.03,SSE,152,11.0,12.0,71,0.00,,SCT025CU,0.07,123.00,VWS V14.00,2013-06-24 22:47:00,
2013-06-24 18:52:00,84.4,74.4,30.03,ESE,108,11.0,12.0,72,0.00,,SCT025CU,0.07,111.00,VWS V14.00,2013-06-24 22:52:00,
2013-06-24 18:57:00,84.5,74.1,30.03,SE,127,9.0,12.0,71,0.00,,SCT025CU,0.07,104.00,VWS V14.00,2013-06-24 22:57:00,
2013-06-24 19:02:00,84.1,73.7,30.03,SSE,150,7.0,10.0,71,0.00,,SCT025CU,0.07,93.00,VWS V14.00,2013-06-24 23:02:00,
2013-06-24 19:07:00,84.0,74.0,30.03,SSE,153,9.0,11.0,72,0.00,,SCT025CU,0.07,90.00,VWS V14.00,2013-06-24 23:07:00,
2013-06-24 19:12:00,83.8,73.8,30.03,ESE,121,7.0,9.0,72,0.00,,SCT025CU,0.07,53.00,VWS V14.00,2013-06-24 23:12:00,
2013-06-24 19:17:00,83.6,73.6,30.03,SE,134,6.0,10.0,72,0.00,,SCT025CU,0.07,74.00,VWS V14.00,2013-06-24 23:17:00,
2013-06-24 19:22:00,83.4,73.8,30.03,SE,132,5.0,10.0,73,0.00,,SCT025CU,0.07,58.00,VWS V14.00,2013-06-24 23:22:00,
2013-06-24 19:27:00,83.3,74.2,30.04,SE,144,3.0,13.0,74,0.00,,SCT025CU,0.07,67.00,VWS V14.00,2013-06-24 23:27:00,
2013-06-24 19:33:00,83.2,74.1,30.04,SE,132,6.0,11.0,74,0.00,,SCT025CU,0.07,62.00,VWS V14.00,2013-06-24 23:33:00,
2013-06-24 19:38:00,83.0,74.3,30.04,ESE,123,6.0,6.0,75,0.00,,SCT025CU,0.07,54.00,VWS V14.00,2013-06-24 23:38:00,
2013-06-24 19:43:00,83.0,74.3,30.04,SE,127,3.0,10.0,75,0.00,,SCT025CU,0.07,26.00,VWS V14.00,2013-06-24 23:43:00,
2013-06-24 19:48:00,82.9,74.2,30.04,SE,128,8.0,8.0,75,0.00,,SCT025CU,0.07,18.00,VWS V14.00,2013-06-24 23:48:00,
2013-06-24 19:53:00,82.7,73.6,30.04,SE,134,8.0,12.0,74,0.00,,SCT025CU,0.07,12.00,VWS V14.00,2013-06-24 23:53:00,
2013-06-24 19:58:00,82.5,73.8,30.03,SSE,147,6.0,6.0,75,0.00,,SCT025CU,0.07,5.00,VWS V14.00,2013-06-24 23:58:00,
2013-06-24 20:03:00,82.5,73.8,30.04,SE,146,6.0,10.0,75,0.00,,SCT025CU,0.07,0.00,VWS V14.00,2013-06-25 00:03:00,
2013-06-24 20:08:00,82.4,74.1,30.04,SE,146,4.0,5.0,76,0.00,,SCT025CU,0.07,0.00,VWS V14.00,2013-06-25 00:08:00,
2013-06-24 20:13:00,82.3,74.0,30.04,SE,145,0.0,4.0,76,0.00,,SCT025CU,0.07,0.00,VWS V14.00,2013-06-25 00:13:00,
2013-06-24 20:18:00,82.2,74.3,30.04,SSE,149,8.0,10.0,77,0.00,,SCT025CU,0.07,0.00,VWS V14.00,2013-06-25 00:18:00,
2013-06-24 20:23:00,82.1,74.2,30.04,SSE,156,3.0,4.0,77,0.00,,SCT025CU,0.07,0.00,VWS V14.00,2013-06-25 00:23:00,
2013-06-24 20:29:00,82.1,74.6,30.04,SSE,155,5.0,6.0,78,0.00,,SCT025CU,0.07,0.00,VWS V14.00,2013-06-25 00:29:00,
2013-06-24 20:34:00,82.0,74.5,30.04,SSE,157,4.0,7.0,78,0.00,,SCT025CU,0.07,0.00,VWS V14.00,2013-06-25 00:34:00,
2013-06-24 20:39:00,82.0,74.1,30.04,SE,144,5.0,5.0,77,0.00,,SCT025CU,0.07,0.00,VWS V14.00,2013-06-25 00:39:00,
2013-06-24 20:44:00,81.9,74.0,30.04,SE,142,1.0,5.0,77,0.00,,SCT025CU,0.07,0.00,VWS V14.00,2013-06-25 00:44:00,
2013-06-24 20:49:00,81.9,74.4,30.04,SE,143,3.0,5.0,78,0.00,,SCT025CU,0.07,0.00,VWS V14.00,2013-06-25 00:49:00,
2013-06-24 20:54:00,81.8,74.3,30.04,SE,142,0.0,0.0,78,0.00,,SCT025CU,0.07,0.00,VWS V14.00,2013-06-25 00:54:00,
2013-06-24 20:59:00,81.8,74.3,30.04,SE,142,3.0,5.0,78,0.00,,SCT025CU,0.07,0.00,VWS V14.00,2013-06-25 00:59:00,
2013-06-24 21:04:00,81.6,74.1,30.04,SE,139,5.0,7.0,78,0.00,,SCT025CU,0.07,0.00,VWS V14.00,2013-06-25 01:04:00,
2013-06-24 21:09:00,81.6,74.1,30.04,SE,136,3.0,4.0,78,0.00,,SCT025CU,0.07,0.00,VWS V14.00,2013-06-25 01:09:00,
2013-06-24 21:14:00,81.6,74.5,30.04,SE,125,8.0,10.0,79,0.00,,SCT025CU,0.07,0.00,VWS V14.00,2013-06-25 01:14:00,
2013-06-24 21:19:00,81.6,74.1,30.04,SE,125,4.0,4.0,78,0.00,,SCT025CU,0.07,0.00,VWS V14.00,2013-06-25 01:19:00,
2013-06-24 21:25:00,81.6,74.5,30.05,SE,128,3.0,8.0,79,0.00,,SCT025CU,0.07,0.00,VWS V14.00,2013-06-25 01:25:00,
2013-06-24 21:30:00,81.6,74.5,30.05,SE,128,4.0,6.0,79,0.00,,SCT025CU,0.07,0.00,VWS V14.00,2013-06-25 01:30:00,
2013-06-24 21:35:00,81.6,74.5,30.05,SE,135,9.0,9.0,79,0.00,,FEW025CU,0.07,0.00,VWS V14.00,2013-06-25 01:35:00,
2013-06-24 21:40:00,81.6,74.5,30.05,SE,136,6.0,6.0,79,0.00,,FEW025CU,0.07,0.00,VWS V14.00,2013-06-25 01:40:00,
2013-06-24 21:45:00,81.6,74.8,30.05,SE,130,4.0,9.0,80,0.00,,FEW025CU,0.07,0.00,VWS V14.00,2013-06-25 01:45:00,
2013-06-24 21:50:00,81.5,74.4,30.05,SE,137,6.0,9.0,79,0.00,,FEW025CU,0.07,0.00,VWS V14.00,2013-06-25 01:50:00,
2013-06-24 21:55:00,81.5,74.4,30.05,SE,138,0.0,5.0,79,0.00,,FEW025CU,0.07,0.00,VWS V14.00,2013-06-25 01:55:00,
2013-06-24 22:00:00,81.6,74.5,30.05,SE,138,5.0,7.0,79,0.00,,FEW025CU,0.07,0.00,VWS V14.00,2013-06-25 02:00:00,
2013-06-24 22:05:00,81.5,74.7,30.05,SE,137,7.0,13.0,80,0.00,,FEW025CU,0.07,0.00,VWS V14.00,2013-06-25 02:05:00,
2013-06-24 22:10:00,80.7,74.0,30.06,SSE,147,3.0,10.0,80,0.00,,FEW025CU,0.08,0.00,VWS V14.00,2013-06-25 02:10:00,
2013-06-24 22:15:00,80.3,74.3,30.05,SSE,148,3.0,5.0,82,0.00,,FEW025CU,0.08,0.00,VWS V14.00,2013-06-25 02:15:00,
2013-06-24 22:21:00,80.0,74.4,30.06,SSE,147,4.0,6.0,83,0.00,,FEW025CU,0.08,0.00,VWS V14.00,2013-06-25 02:21:00,
2013-06-24 22:26:00,79.8,74.5,30.06,SSE,147,0.0,0.0,84,0.00,,FEW025CU,0.08,0.00,VWS V14.00,2013-06-25 02:26:00,
2013-06-24 22:31:00,79.7,74.4,30.06,SE,146,4.0,5.0,84,0.00,,FEW025CU,0.08,0.00,VWS V14.00,2013-06-25 02:31:00,
2013-06-24 22:36:00,79.6,74.7,30.06,SE,146,3.0,4.0,85,0.00,,BKN025CU,0.08,0.00,VWS V14.00,2013-06-25 02:36:00,
2013-06-24 22:41:00,79.6,74.7,30.06,SE,146,0.0,0.0,85,0.00,,BKN025CU,0.08,0.00,VWS V14.00,2013-06-25 02:41:00,
2013-06-24 22:46:00,79.6,74.7,30.06,SE,146,2.0,4.0,85,0.00,,BKN025CU,0.08,0.00,VWS V14.00,2013-06-25 02:46:00,
2013-06-24 22:51:00,79.7,74.8,30.07,SE,146,2.0,4.0,85,0.00,,BKN025CU,0.08,0.00,VWS V14.00,2013-06-25 02:51:00,
2013-06-24 22:56:00,79.6,74.3,30.07,SE,146,0.0,4.0,84,0.00,,BKN025CU,0.08,0.00,VWS V14.00,2013-06-25 02:56:00,
2013-06-24 23:01:00,79.6,74.3,30.07,SE,146,0.0,0.0,84,0.00,,BKN025CU,0.08,0.00,VWS V14.00,2013-06-25 03:01:00,
2013-06-24 23:06:00,79.6,74.0,30.08,SE,146,1.0,3.0,83,0.00,,BKN025CU,0.08,0.00,VWS V14.00,2013-06-25 03:06:00,
2013-06-24 23:11:00,79.7,74.1,30.07,SE,144,2.0,5.0,83,0.00,,BKN025CU,0.08,0.00,VWS V14.00,2013-06-25 03:11:00,
2013-06-24 23:17:00,79.7,73.7,30.07,SE,145,3.0,4.0,82,0.00,,BKN025CU,0.08,0.00,VWS V14.00,2013-06-25 03:17:00,
2013-06-24 23:22:00,79.8,73.8,30.07,SE,145,3.0,6.0,82,0.00,,BKN025CU,0.08,0.00,VWS V14.00,2013-06-25 03:22:00,
2013-06-24 23:27:00,79.9,73.9,30.08,SE,145,0.0,3.0,82,0.00,,BKN025CU,0.08,0.00,VWS V14.00,2013-06-25 03:27:00,
2013-06-24 23:32:00,80.0,74.0,30.08,SE,145,0.0,2.0,82,0.00,,SCT025CU,0.08,0.00,VWS V14.00,2013-06-25 03:32:00,
2013-06-24 23:39:00,80.1,74.1,30.08,SE,145,4.0,4.0,82,0.00,,SCT025CU,0.08,0.00,VWS V14.00,2013-06-25 03:39:00,
2013-06-24 23:44:00,80.1,74.1,30.08,SE,145,0.0,0.0,82,0.00,,SCT025CU,0.08,0.00,VWS V14.00,2013-06-25 03:44:00,
2013-06-24 23:49:00,80.2,73.8,30.09,SE,145,0.0,0.0,81,0.00,,SCT025CU,0.08,0.00,VWS V14.00,2013-06-25 03:49:00,
2013-06-24 23:55:00,80.2,73.8,30.08,SE,145,0.0,0.0,81,0.00,,SCT025CU,0.08,0.00,VWS V14.00,2013-06-25 03:55:00,